Temperature
9 10 11 12 12 12 13 13 13 13 12 12 13 14 15 14 13 13 13 13 13 13 12 11 11 11 11 11 11 11 11 11 11 11 11 11 11 11 11 10 10 10 10 10
9 10 11 11 11 11 11 11 12 12 11 12 12 13 14 15 14 13 13 13 13 12 12 11 11 11 11 11 11 11 11 11 11 11 11 11 11 10 10 10 10 10 10 10
10 10 10 10 10 10 10 11 12 12 11 11 11 13 15 14 13 12 12 12 12 12 12 11 11 11 11 11 11 11 11 11 11 11 10 10 10 10 10 10 10 10 10 10
9 10 9 9 10 10 10 11 11 11 11 11 11 13 15 15 13 13 12 12 12 11 11 10 10 10 10 11 11 11 10 10 10 10 10 10 10 9 9 9 9 9 9 9
9 9 9 9 10 10 10 10 10 10 10 10 11 11 14 14 13 14 13 12 11 11 10 10 10 10 10 10 10 10 10 10 10 10 10 9 9 9 9 9 9 9 9 9
8 8 9 9 9 9 9 9 9 9 9 9 11 11 14 15 14 14 13 12 11 10 10 9 9 9 9 10 10 10 10 10 10 10 9 9 9 9 9 8 8 8 8 8
7 8 8 8 8 8 8 9 9 9 9 11 11 11 13 14 13 13 12 11 10 9 9 9 9 9 9 9 9 9 9 9 9 9 9 9 9 8 8 8 8 8 8 8
7 8 8 8 9 8 8 9 10 10 11 12 10 11 14 12 11 10 10 10 9 9 9 8 8 8 8 9 9 9 9 9 9 9 9 8 8 8 8 8 8 8 8 7
7 8 7 7 8 9 8 9 10 9 9 10 12 12 12 11 11 10 10 9 9 8 8 8 8 8 8 8 8 8 8 8 9 8 8 8 8 8 7 7 7 7 7 7
7 6 6 6 7 7 8 8 8 8 9 11 12 12 13 12 11 11 10 10 9 8 8 8 8 7 8 8 8 8 8 8 8 8 8 8 7 7 7 7 7 7 7 6
5 6 6 6 7 7 7 7 8 9 9 10 12 13 12 11 10 10 10 9 8 7 7 7 7 7 7 7 7 7 7 7 7 7 7 7 7 7 6 6 6 6 6 6
5 5 6 6 6 6 7 7 7 8 8 8 11 12 10 10 10 9 9 8 7 7 7 7 7 7 7 7 7 7 7 7 7 6 6 6 6 6 6 6 6 6 6 5
5 4 5 6 6 5 5 6 6 6 7 8 9 11 9 9 9 8 8 8 7 7 7 6 6 6 6 6 6 6 6 6 6 6 6 6 6 6 6 5 5 5 5 5
5 4 5 6 6 5 5 5 5 6 7 7 9 10 10 9 9 9 8 8 7 7 6 6 6 6 6 6 6 6 6 6 6 6 6 5 5 5 5 5 5 5 4 4
4 4 4 5 5 5 5 5 5 5 7 7 9 9 9 9 9 8 8 7 7 6 6 6 6 5 5 5 5 5 5 5 5 5 5 5 5 5 5 4 4 4 4 4
3 3 3 4 5 4 4 5 5 5 6 7 7 8 9 9 8 7 7 6 6 6 5 5 5 5 5 5 5 5 5 5 5 5 5 5 5 4 4 4 4 4 3 3
2 2 3 4 4 4 4 5 5 5 6 6 7 7 7 7 7 6 6 6 5 5 5 4 4 4 4 4 4 4 4 4 4 4 4 4 4 4 4 3 3 3 3 3
2 2 3 3 3 3 6 5 5 5 5 5 6 6 6 6 5 5 4 5 5 4 4 4 4 4 4 4 4 4 4 4 4 4 4 4 3 3 3 3 3 2 2 2
2 2 2 3 3 4 5 4 4 4 5 5 5 5 5 4 4 4 4 4 3 3 3 3 3 3 3 3 3 4 4 3 3 3 3 3 3 3 2 2 2 2 2 1
2 2 2 2 3 3 5 4 3 4 4 4 4 4 4 3 5 5 3 3 3 3 3 2 3 3 3 3 3 3 3 3 3 3 2 2 2 2 2 2 1 1 1 1
1 1 1 2 3 4 4 3 3 4 4 3 3 3 3 3 3 3 2 2 2 2 2 2 2 2 2 2 2 2 2 2 2 2 2 1 1 1 1 1 1 1 0 0
2 2 1 2 2 3 3 3 3 3 3 2 2 2 2 1 1 1 1 1 1 1 1 1 1 1 1 2 2 2 1 1 1 1 1 1 1 0 0 0 0 -0 -0 -0
2 2 2 2 3 3 2 2 2 2 2 2 1 1 1 0 0 0 0 0 0 0 0 0 0 1 1 1 1 1 1 1 1 0 0 0 0 -0 -0 -1 -1 -1 -1 -1
1 0 1 1 2 2 1 1 1 1 1 1 0 0 -0 -0 -1 -1 -0 -0 -0 -0 -0 -0 -0 -0 -0 -0 -0 0 0 -0 -0 -0 -1 -1 -1 -1 -1 -1 -1 -2 -2 -2
1 0 1 1 2 1 1 0 -0 -0 -0 -0 -1 -1 -1 -1 -1 -1 -1 -1 -1 -1 -1 -1 -1 -1 -1 -1 -1 -1 -1 -1 -1 -1 -2 -2 -2 -2 -2 -2 -2 -3 -3 -3
0 0 1 2 1 1 1 -1 -1 -1 -1 -1 -2 -2 -2 -2 -2 -2 -2 -2 -2 -2 -2 -2 -2 -2 -2 -2 -2 -2 -2 -2 -2 -2 -2 -2 -2 -3 -3 -3 -3 -3 -3 -4
Wind_Speed
7 9 13 15 16 9 7 9 10 8 4 8 14 18 16 13 13 14 14 14 14 13 12 10 9 9 8 8 8 7 7 6 5 4 4 3 3 3 3 2 3 4 4 4
7 14 13 9 11 11 10 11 11 8 5 7 13 19 18 16 16 15 15 15 14 13 12 10 10 10 10 9 8 8 7 6 6 4 4 3 3 2 2 2 3 4 4 4
14 5 8 11 11 13 14 14 13 9 5 7 10 14 13 11 11 12 13 14 14 14 13 12 11 11 10 9 8 7 7 6 6 5 3 3 2 2 2 3 3 3 4 4
12 9 8 11 13 13 13 11 11 9 8 6 4 8 8 8 9 10 10 10 11 12 12 11 11 11 10 9 7 7 6 6 5 5 5 5 4 4 4 3 3 3 4 4
8 8 11 13 12 13 7 4 7 8 9 9 9 8 9 6 9 9 9 9 9 9 10 10 10 10 9 7 6 6 6 6 5 5 6 6 5 4 3 3 4 3 3 4
7 5 7 8 6 9 6 4 3 5 6 10 12 12 9 7 8 6 6 7 7 7 8 8 8 8 7 6 6 6 6 5 5 6 6 6 5 5 4 4 4 3 2 3
7 7 5 5 6 8 9 7 5 6 7 9 7 10 10 5 4 5 4 4 4 5 6 7 7 7 6 6 6 6 6 5 5 5 5 5 5 5 5 4 4 3 3 3
7 7 9 8 9 9 13 11 8 7 7 5 6 10 6 2 2 3 4 3 3 4 5 6 6 6 6 6 6 6 6 5 5 5 4 4 4 3 3 4 4 4 4 4
6 4 3 6 5 7 9 11 7 3 3 5 7 6 6 4 4 4 3 3 2 3 4 5 5 5 5 5 6 6 6 5 5 5 4 4 4 3 3 3 3 3 4 3
3 4 2 3 4 5 5 6 5 6 6 8 8 8 5 5 4 4 3 2 2 2 3 4 3 4 4 4 4 5 5 5 4 4 3 3 3 3 3 3 3 4 4 4
3 3 2 4 8 9 7 7 6 5 5 6 7 4 1 3 2 2 2 1 1 1 2 2 2 3 3 3 4 4 4 4 3 3 3 3 2 2 2 3 3 4 4 4
4 3 4 5 2 3 7 7 7 6 6 6 6 3 3 1 1 1 1 1 1 0 0 1 1 1 2 3 3 4 4 3 3 3 2 2 2 2 2 3 3 4 4 4
4 3 2 3 4 2 5 6 7 4 4 6 8 5 3 2 1 0 0 0 0 0 0 0 1 1 2 2 3 3 3 3 3 2 2 2 2 2 3 3 4 4 4 5
3 4 6 7 3 3 5 7 8 8 7 9 12 10 5 3 3 3 2 2 1 1 1 1 1 1 2 2 2 2 3 3 3 2 2 2 2 3 3 3 4 4 4 5
2 5 6 8 6 5 7 10 11 14 13 12 12 13 11 8 6 5 4 3 2 2 1 2 2 2 2 2 2 1 1 2 2 2 2 2 2 2 3 3 4 4 5 6
2 3 4 7 6 6 9 10 12 14 15 16 15 14 9 7 5 5 5 4 4 3 3 2 2 3 3 2 2 1 1 1 1 2 2 2 2 2 3 3 4 4 5 6
3 3 4 6 5 5 9 10 11 10 11 12 14 11 5 5 5 5 5 5 5 5 3 3 2 2 2 2 2 2 1 1 1 1 1 1 2 2 3 3 4 5 6 6
6 5 3 3 3 7 3 1 5 8 8 7 8 7 5 5 6 5 5 5 5 4 3 2 2 1 1 1 1 1 1 1 0 0 1 2 2 3 3 4 4 5 6 6
9 7 4 4 6 7 4 2 3 6 6 5 7 7 6 4 3 3 1 2 3 2 2 1 1 1 1 1 1 1 1 1 0 1 2 2 3 3 3 4 5 6 6 7
6 7 5 4 5 6 2 1 2 3 4 2 3 4 3 1 3 2 2 2 2 2 1 1 1 1 1 1 0 1 1 1 1 2 2 3 3 3 4 5 5 6 6 7
4 5 7 7 7 6 2 1 2 4 2 2 2 2 1 2 3 3 2 1 1 2 2 2 2 1 1 1 0 1 1 1 2 2 2 3 3 4 4 5 5 6 6 7
6 5 6 6 7 6 1 2 3 2 3 3 3 2 1 2 2 2 1 1 2 3 3 3 2 2 2 1 0 1 2 2 2 2 3 3 4 4 4 5 5 6 6 7
6 5 4 5 4 2 1 2 2 2 2 3 3 2 1 1 2 2 1 2 2 3 2 2 2 3 3 3 2 2 3 3 2 3 3 4 4 4 4 5 5 6 6 6
4 3 4 4 5 3 3 3 3 2 2 3 2 2 1 1 2 2 2 2 2 3 3 3 3 3 4 4 3 3 4 3 3 3 4 4 4 4 4 4 4 5 5 6
4 4 5 6 5 4 3 2 2 1 1 2 2 2 1 1 1 1 1 2 2 2 3 3 3 3 4 4 4 4 4 3 3 4 4 4 4 4 4 5 4 5 5 6
5 5 6 6 4 4 3 2 1 0 0 1 1 2 2 1 1 1 1 2 2 2 3 3 3 4 4 5 5 5 5 4 3 4 4 3 4 4 4 5 5 5 7 9
Wind_Direction
186 206 215 212 215 236 240 235 241 244 246 251 253 259 258 250 244 244 241 236 232 231 226 217 210 202 198 198 200 201 202 200 196 195 201 207 215 222 231 239 241 238 239 236
196 226 229 223 216 224 231 240 249 258 256 261 270 270 264 252 243 242 241 238 235 230 223 214 208 201 200 199 199 204 207 203 199 200 205 214 217 227 235 239 245 239 239 236
218 227 208 208 209 217 230 237 243 250 269 260 282 274 250 236 234 237 238 238 235 227 220 212 206 203 200 200 200 204 207 205 200 195 194 189 198 225 227 235 241 245 242 239
231 227 209 209 218 218 235 233 238 243 253 257 259 278 255 229 231 229 229 226 225 220 216 210 204 201 201 201 198 204 207 206 198 196 203 206 215 228 241 241 237 245 246 244
218 212 212 220 222 214 225 206 220 235 247 263 239 253 263 229 236 229 225 221 219 214 209 204 201 201 201 197 195 203 206 204 197 202 207 212 220 229 232 236 237 242 246 244
242 230 224 224 221 209 176 161 193 219 237 250 233 230 260 229 232 233 225 220 213 204 201 199 198 198 200 193 194 201 200 200 197 203 209 215 218 222 227 236 242 244 244 248
231 225 209 194 177 184 192 186 198 209 218 238 205 225 250 249 243 246 236 223 208 196 192 192 193 194 196 193 196 200 198 200 199 202 210 214 217 220 225 234 240 248 250 252
214 223 201 201 205 192 199 206 211 220 228 223 202 232 246 235 242 246 244 236 211 201 194 194 195 194 197 197 201 202 203 203 201 202 207 207 211 220 228 238 241 247 251 256
217 224 187 208 215 195 189 212 226 242 271 254 226 238 260 223 218 219 212 203 200 193 193 195 196 201 204 203 207 206 204 203 201 202 203 203 209 220 231 243 248 250 250 256
233 233 213 179 182 209 220 186 186 208 221 238 239 236 226 193 200 192 183 178 163 181 190 196 199 204 206 206 206 202 201 203 202 200 200 205 216 230 237 245 254 258 258 258
232 222 200 191 204 197 179 189 207 211 239 239 243 231 146 183 173 167 163 164 170 184 187 198 217 216 208 204 196 190 189 189 195 195 197 205 220 235 243 252 261 267 267 263
211 227 232 226 216 243 212 203 194 209 220 233 254 245 86 134 128 153 147 127 65 78 175 231 222 201 196 190 182 175 177 182 190 191 193 205 223 239 254 266 276 280 277 273
188 202 223 205 189 185 218 219 216 229 226 224 232 235 109 68 66 136 233 217 68 45 121 198 190 179 179 174 169 173 179 181 182 186 197 213 235 250 267 276 284 280 283 281
214 215 233 245 268 201 228 228 221 219 228 237 240 252 254 274 276 281 278 276 301 307 259 241 221 197 182 175 173 175 179 176 175 184 204 227 250 264 273 280 287 289 288 284
238 236 243 264 270 242 242 236 225 224 230 240 250 252 259 265 268 274 277 277 277 281 281 260 242 225 205 193 186 177 170 178 182 191 211 237 257 272 280 287 294 297 292 287
249 244 248 253 250 256 260 252 236 235 240 245 254 262 271 277 278 273 270 271 267 272 273 264 251 237 225 217 210 198 196 200 196 204 232 255 267 281 289 296 300 302 301 299
220 221 242 251 259 268 256 245 233 233 236 239 248 262 285 283 279 275 271 265 263 267 267 267 254 234 227 224 227 227 233 211 186 215 257 278 289 297 302 307 308 306 304 303
214 222 232 243 223 236 254 294 239 241 247 249 261 273 280 288 292 279 268 267 270 271 265 272 280 275 258 243 239 232 210 168 155 329 326 317 308 306 306 307 306 306 303 300
214 209 211 217 239 262 267 271 240 232 253 269 266 278 296 315 300 281 286 283 275 268 275 287 298 296 303 285 260 215 180 168 215 315 323 323 317 308 309 309 307 308 307 304
201 206 210 214 234 249 275 320 281 220 254 315 279 278 306 320 262 280 352 328 338 1 9 24 31 26 10 355 300 185 191 201 270 301 309 312 310 307 306 306 307 309 306 303
184 203 215 224 238 259 323 331 170 212 289 351 304 286 252 255 293 319 322 336 19 35 37 35 26 11 1 358 5 225 253 274 292 299 302 306 307 305 303 304 305 307 306 304
201 202 209 215 227 243 50 142 196 298 346 333 323 306 276 306 341 345 334 10 41 45 41 31 21 4 1 356 307 270 286 299 306 301 299 303 307 308 302 302 304 305 304 304
220 223 223 218 235 315 203 221 294 326 304 322 329 337 344 343 341 353 2 16 26 29 23 16 14 4 1 356 334 304 312 319 309 302 301 301 303 304 302 300 302 304 304 302
236 236 230 243 256 266 264 280 303 306 309 331 349 360 11 347 343 354 11 13 10 11 15 7 358 355 349 346 336 321 319 316 305 301 303 303 304 305 304 302 299 298 299 301
244 207 229 250 266 273 263 268 295 339 16 31 34 24 15 16 337 341 345 349 358 2 356 354 344 336 332 333 330 328 325 314 304 303 305 303 301 301 304 302 298 295 292 295
229 228 236 251 253 249 270 329 330 302 6 22 38 26 29 23 353 354 348 349 349 344 342 342 337 330 327 328 326 329 328 316 306 303 304 302 303 304 303 303 304 298 292 302
Height
1476 1476 1471 1470 1472 1471 1470 1470 1469 1470 1474 1475 1468 1464 1462 1464 1465 1465 1465 1466 1467 1469 1471 1472 1473 1475 1476 1478 1479 1481 1482 1483 1484 1484 1484 1485 1485 1485 1486 1486 1486 1486 1486 1487
1474 1470 1466 1469 1472 1473 1473 1472 1470 1471 1474 1473 1466 1460 1456 1456 1457 1459 1459 1460 1461 1464 1465 1467 1468 1470 1472 1474 1476 1477 1478 1479 1480 1480 1481 1481 1481 1482 1482 1482 1482 1482 1483 1483
1464 1464 1467 1469 1471 1472 1471 1470 1468 1469 1472 1471 1468 1453 1446 1448 1452 1453 1454 1455 1456 1458 1459 1461 1464 1466 1468 1470 1471 1473 1474 1475 1476 1477 1477 1477 1478 1478 1478 1478 1479 1479 1479 1479
1464 1464 1467 1467 1467 1467 1466 1468 1469 1471 1471 1465 1467 1454 1439 1441 1446 1448 1449 1450 1451 1453 1455 1457 1459 1461 1463 1465 1467 1469 1470 1471 1472 1473 1473 1474 1474 1474 1474 1474 1475 1475 1475 1475
1460 1462 1463 1463 1462 1464 1464 1468 1470 1471 1471 1469 1464 1463 1439 1439 1440 1440 1443 1445 1447 1449 1451 1453 1455 1457 1460 1461 1463 1465 1466 1467 1468 1469 1470 1470 1470 1471 1471 1471 1471 1471 1471 1471
1460 1462 1462 1460 1463 1464 1467 1470 1471 1471 1470 1467 1453 1454 1435 1432 1433 1435 1439 1442 1444 1445 1447 1450 1452 1454 1456 1457 1459 1461 1462 1463 1464 1465 1466 1466 1466 1467 1467 1467 1467 1467 1467 1467
1458 1458 1459 1461 1462 1465 1466 1466 1466 1466 1464 1450 1448 1448 1433 1430 1434 1436 1438 1440 1442 1443 1445 1446 1448 1450 1452 1454 1456 1457 1458 1459 1460 1461 1462 1462 1463 1463 1463 1463 1463 1463 1463 1463
1452 1450 1454 1457 1455 1456 1458 1457 1455 1452 1444 1437 1450 1441 1428 1433 1436 1437 1438 1439 1440 1442 1443 1444 1445 1447 1449 1450 1452 1453 1454 1455 1456 1457 1458 1458 1459 1459 1459 1459 1459 1459 1459 1459
1449 1448 1453 1454 1455 1454 1456 1454 1451 1453 1452 1443 1433 1432 1431 1432 1434 1435 1437 1438 1439 1440 1441 1442 1443 1445 1446 1447 1449 1450 1451 1452 1453 1453 1454 1455 1455 1456 1456 1456 1456 1456 1455 1455
1452 1452 1452 1454 1455 1455 1453 1452 1455 1453 1447 1436 1426 1427 1422 1427 1430 1432 1434 1436 1438 1439 1440 1441 1442 1442 1443 1445 1446 1447 1448 1449 1450 1450 1451 1451 1452 1452 1452 1452 1452 1452 1452 1451
1454 1453 1453 1453 1450 1448 1453 1455 1450 1447 1443 1434 1425 1421 1423 1426 1429 1432 1434 1436 1437 1438 1438 1439 1440 1440 1441 1442 1443 1444 1445 1446 1447 1448 1448 1448 1449 1449 1449 1449 1449 1448 1448 1447
1453 1452 1448 1447 1450 1450 1448 1447 1449 1447 1445 1441 1429 1426 1428 1429 1431 1433 1434 1436 1437 1437 1438 1438 1438 1439 1439 1439 1440 1441 1442 1443 1444 1445 1445 1446 1446 1446 1446 1446 1445 1445 1444 1443
1452 1452 1448 1444 1450 1453 1450 1449 1449 1449 1445 1440 1432 1426 1429 1430 1431 1433 1434 1435 1436 1436 1437 1437 1437 1437 1437 1438 1438 1439 1440 1441 1442 1442 1443 1443 1443 1443 1443 1442 1442 1441 1440 1439
1450 1449 1446 1439 1437 1444 1448 1448 1448 1447 1442 1436 1430 1425 1426 1429 1430 1432 1434 1435 1435 1436 1436 1436 1436 1436 1437 1437 1437 1437 1438 1438 1439 1440 1440 1440 1440 1440 1440 1439 1438 1437 1436 1435
1449 1447 1446 1443 1442 1443 1442 1443 1444 1443 1436 1433 1425 1427 1425 1427 1430 1431 1432 1433 1434 1434 1435 1435 1435 1436 1436 1436 1435 1436 1437 1436 1437 1437 1437 1438 1438 1437 1437 1436 1435 1434 1432 1431
1449 1447 1446 1443 1441 1441 1440 1438 1437 1436 1434 1431 1428 1427 1426 1428 1430 1431 1431 1432 1432 1433 1433 1433 1434 1434 1434 1434 1434 1434 1435 1435 1434 1434 1435 1435 1435 1434 1433 1432 1431 1430 1428 1427
1448 1448 1445 1438 1440 1440 1435 1431 1432 1431 1429 1428 1426 1425 1426 1428 1429 1430 1430 1431 1431 1431 1431 1431 1432 1432 1432 1432 1432 1432 1432 1432 1432 1432 1432 1432 1432 1431 1430 1429 1428 1426 1424 1422
1447 1446 1444 1440 1442 1439 1427 1429 1428 1427 1426 1428 1426 1426 1427 1428 1428 1428 1429 1429 1429 1429 1429 1429 1429 1430 1430 1430 1431 1430 1430 1430 1430 1430 1430 1429 1429 1428 1427 1426 1424 1422 1420 1418
1442 1444 1442 1440 1435 1427 1426 1429 1429 1428 1426 1427 1426 1426 1427 1427 1426 1426 1427 1427 1427 1427 1427 1427 1427 1427 1427 1428 1428 1428 1428 1428 1428 1427 1427 1426 1426 1425 1423 1422 1421 1419 1416 1414
1440 1441 1441 1439 1434 1428 1424 1427 1427 1428 1425 1426 1425 1425 1426 1426 1424 1425 1426 1426 1426 1426 1426 1426 1425 1425 1426 1426 1426 1425 1425 1425 1425 1425 1424 1424 1423 1422 1420 1419 1417 1415 1413 1410
1438 1438 1437 1435 1431 1423 1426 1427 1427 1428 1424 1426 1425 1425 1426 1425 1425 1426 1425 1424 1424 1424 1424 1424 1424 1424 1424 1424 1424 1423 1423 1423 1423 1422 1422 1421 1420 1419 1417 1415 1413 1411 1408 1406
1431 1432 1433 1432 1431 1427 1426 1427 1427 1426 1426 1425 1425 1424 1425 1425 1424 1423 1423 1423 1422 1422 1423 1422 1422 1422 1422 1422 1422 1421 1421 1420 1420 1419 1419 1418 1416 1415 1413 1411 1409 1407 1404 1401
1429 1428 1426 1427 1426 1425 1426 1426 1426 1426 1426 1425 1424 1424 1424 1423 1423 1422 1422 1422 1422 1422 1421 1421 1421 1421 1421 1420 1420 1419 1418 1418 1417 1416 1415 1414 1412 1411 1409 1407 1405 1402 1400 1397
1429 1430 1428 1427 1424 1425 1425 1425 1425 1425 1425 1424 1424 1423 1423 1422 1422 1421 1421 1421 1421 1421 1420 1420 1420 1419 1418 1418 1417 1416 1416 1415 1414 1413 1411 1410 1408 1407 1405 1403 1401 1398 1396 1393
1425 1427 1426 1424 1423 1424 1423 1423 1423 1423 1423 1423 1423 1422 1422 1421 1421 1420 1420 1420 1419 1419 1419 1419 1418 1417 1417 1416 1414 1414 1413 1412 1410 1409 1408 1406 1405 1403 1401 1399 1396 1394 1392 1390
1424 1424 1423 1419 1421 1422 1422 1422 1422 1422 1422 1422 1421 1421 1420 1420 1419 1419 1419 1418 1418 1418 1418 1417 1416 1415 1414 1413 1412 1411 1410 1409 1407 1406 1404 1403 1401 1399 1397 1394 1392 1389 1388 1385